Culdrose, United Kingdom

5:05 AM BST on May 29, 2017 (GMT +0100)
Culdrose Navy

Weather History for EGDR - August, 2012

Change the Weather History Date:

Monday, August 13, 2012

  Actual Average Record
Temperature  
Mean Temperature 64 °F -  
Max Temperature 67 °F 63 °F 68 °F (1996)
Min Temperature 60 °F 53 °F 53 °F (2006)
Degree Days  
Heating Degree Days 2    
Growing Degree Days 14 (Base 50)    
Moisture  
Dew Point 62 °F    
Average Humidity 95    
Maximum Humidity 100    
Minimum Humidity 88    
Precipitation  
Precipitation 0.00 in - - ()
Sea Level Pressure  
Sea Level Pressure 29.74 in    
Wind  
Wind Speed 12 mph ()    
Max Wind Speed 17 mph    
Max Gust Speed 32 mph    
Visibility 5.7 miles    
Events Rain    
Averages and records for this station are not official NWS values.
T = Trace of Precipitation, MM = Missing Value Source: Averaged Metar Reports

Daily Weather History Graph

Daily Weather History Graph

Search for Another Location

Airport or City:

Trip Planner

Search our weather history database for the weather conditions in past years. The results will help you decide how hot, cold, wet, or windy it might be!

Date:

Astronomy

Aug. 13, 2012 Rise Set
Actual Time 6:07 AM BST 8:42 PM BST
Civil Twilight 5:31 AM BST 9:18 PM BST
Nautical Twilight 4:45 AM BST 10:04 PM BST
Astronomical Twilight 3:50 AM BST 10:59 PM BST
Moon 1:46 AM BST (8/13) 5:55 PM BST (8/13)
Length of Visible Light 15h 47m
Length of Day
14h 34m
Waning Crescent, 18% of the Moon is Illuminated
Aug 13
Waning Crescent
Aug 17
New
Aug 24
First Quarter
Aug 31
Full
Sep 8
Last Quarter

Hourly Weather History & Observations

Time (BST) Temp. Dew Point Humidity Pressure Visibility Wind Dir Wind Speed Gust Speed Precip Events Conditions
12:50 AM 62 °F 61 °F 95% 29.79 in 12 mi South 13.8 mph - -   Mostly Cloudy
12:50 AM 62.6 °F 60.8 °F 94% 29.77 in 6.2 mi South 13.8 mph 26.5 mph N/A   Mostly Cloudy
1:50 AM 62.6 °F 60.8 °F 94% 29.77 in 6.2 mi South 13.8 mph - N/A Rain Light Rain
2:50 AM 62.6 °F 60.8 °F 94% 29.74 in 6.2 mi South 13.8 mph 27.6 mph N/A Rain Light Rain
3:50 AM 63 °F 62 °F 93% 29.73 in 9 mi South 15.0 mph - - Rain Light Rain
3:50 AM 62.6 °F 60.8 °F 94% 29.71 in 6.2 mi South 15.0 mph 29.9 mph N/A Rain Light Rain
4:50 AM 62.6 °F 62.6 °F 100% 29.71 in 1.6 mi South 16.1 mph 32.2 mph N/A Rain Light Rain
5:50 AM 62.6 °F 62.6 °F 100% 29.68 in 1.9 mi South 17.3 mph 31.1 mph N/A Rain Light Rain
6:50 AM 62 °F 62 °F 99% 29.70 in 2 mi SSW 16.1 mph - - Rain Light Rain
6:50 AM 62.6 °F 62.6 °F 100% 29.68 in 2.5 mi SSW 16.1 mph 28.8 mph N/A Rain Light Rain
7:50 AM 62.6 °F 62.6 °F 100% 29.71 in 5.0 mi SSW 12.7 mph - N/A Rain Light Rain
8:50 AM 62.6 °F 62.6 °F 100% 29.71 in 2.5 mi SSW 11.5 mph - N/A   Mostly Cloudy
9:50 AM 63 °F 62 °F 96% 29.73 in 1 mi SSW 12.7 mph - - Rain Light Rain
9:50 AM 62.6 °F 62.6 °F 100% 29.71 in 0.7 mi SSW 12.7 mph - N/A Rain Light Rain
10:50 AM 62.6 °F 62.6 °F 100% 29.74 in 3.7 mi SW 11.5 mph - N/A Rain Light Rain
11:50 AM 64.4 °F 62.6 °F 94% 29.74 in 6.2 mi SSW 12.7 mph - N/A   Mostly Cloudy
12:50 PM 65 °F 63 °F 92% 29.75 in 10 mi SSW 15.0 mph - -   Haze
12:50 PM 66.2 °F 62.6 °F 88% 29.74 in 6.2 mi SSW 15.0 mph - N/A   Haze
1:50 PM 66.2 °F 64.4 °F 94% 29.74 in 6.2 mi SW 12.7 mph - N/A   Haze
2:50 PM 66.2 °F 62.6 °F 88% 29.74 in 6.2 mi SW 15.0 mph - N/A   Haze
3:50 PM 65 °F 62 °F 88% 29.76 in 11 mi SW 11.5 mph - -   Haze
3:50 PM 64.4 °F 62.6 °F 94% 29.74 in 6.2 mi SW 11.5 mph - N/A   Haze
4:50 PM 64.4 °F 62.6 °F 94% 29.74 in 6.2 mi SSW 11.5 mph - N/A   Mostly Cloudy
5:50 PM 64.4 °F 62.6 °F 94% 29.74 in 2.2 mi SSW 11.5 mph - N/A Rain Light Rain
6:50 PM 62 °F 61 °F 94% 29.76 in 7 mi SSW 11.5 mph - - Rain Light Drizzle
6:50 PM 62.6 °F 60.8 °F 94% 29.74 in 6.2 mi SSW 11.5 mph - N/A   Haze
7:50 PM 62.6 °F 60.8 °F 94% 29.74 in 6.2 mi SW 13.8 mph - N/A   Mostly Cloudy
8:50 PM 60.8 °F 60.8 °F 100% 29.77 in 6.2 mi SW 13.8 mph - N/A   Haze
9:50 PM 61 °F 60 °F 94% 29.79 in 11 mi SW 13.8 mph - -   Mostly Cloudy
9:50 PM 60.8 °F 59.0 °F 94% 29.77 in 6.2 mi SW 13.8 mph - N/A   Mostly Cloudy
10:50 PM 62.6 °F 60.8 °F 94% 29.77 in 6.2 mi SSW 11.5 mph - N/A   Mostly Cloudy
11:50 PM 60.8 °F 59.0 °F 94% 29.77 in 6.2 mi SW 10.4 mph - N/A   Mostly Cloudy